This demonstration page uses our WeatherBlox Daily Observations layout. Learn more.

Left ArrowRight Arrow

Hourly Observations for May 21, 2015

Temp ( °F °C ) Dew Point ( °F °C ) Humidity (%) Winds ( mph kmh ) Pressure ( in mb ) Visibility ( mi km ) Precip ( " mm )
12:52 am 00:52 Clear 43 6.1 41 5 93 93 Calm 30.27 1025 10 16 0.00 0.00
1:52 am 01:52 Clear 42 5.6 41 5 96 96 Calm 30.27 1025 10 16 0.00 0.00
2:52 am 02:52 Clear 43 6.1 40 4.4 89 89 Calm 30.27 1025 10 16 0.00 0.00
3:52 am 03:52 Clear 40 4.4 38 3.3 93 93 ESE 3 6 30.27 1025 10 16 0.00 0.00
4:52 am 04:52 Clear 41 5 38 3.3 89 89 Calm 30.26 1025 10 16 0.00 0.00
5:52 am 05:52 Clear with Patchy Fog 41 5 39 3.9 93 93 S 3 6 30.26 1025 10 16 0.00 0.00
6:52 am 06:52 Sunny with Patchy Fog 45 7.2 39 3.9 80 80 WNW 5 7 30.27 1025 10 16 0.00 0.00
7:52 am 07:52 Sunny 48 8.9 41 5 77 77 WNW 5 7 30.28 1025 10 16 0.00 0.00
8:52 am 08:52 Sunny 52 11.1 41 5 66 66 NW 7 11 30.27 1025 10 16 0.00 0.00
9:52 am 09:52 Sunny 56 13.3 42 5.6 60 60 WNW 8 13 30.26 1025 10 16 0.00 0.00
10:52 am 10:52 Mostly Sunny 61 16.1 43 6.1 52 52 WNW 8 13 30.24 1024 10 16 0.00 0.00
11:52 am 11:52 Mostly Sunny 65 18.3 44 6.7 47 47 NW 12 19 30.23 1024 10 16 0.00 0.00
12:52 pm 12:52 Mostly Sunny 67 19.4 42 5.6 41 41 NW 12 19 30.22 1023 10 16 0.00 0.00
1:52 pm 13:52 Mostly Sunny 70 21.1 41 5 35 35 W 12 19 30.20 1023 10 16 0.00 0.00
2:52 pm 14:52 Mostly Sunny 72 22.2 40 4.4 31 31 WNW 14 22 30.19 1022 10 16 0.00 0.00
3:52 pm 15:52 Mostly Sunny 73 22.8 40 4.4 30 30 W 7 11 30.18 1022 10 16 0.00 0.00
4:52 pm 16:52 Mostly Sunny 73 22.8 39 3.9 29 29 WSW 7 11 30.16 1021 10 16 0.00 0.00
5:52 pm 17:52 Mostly Sunny 73 22.8 39 3.9 29 29 W 12 19 30.15 1021 10 16 0.00 0.00
6:52 pm 18:52 Mostly Sunny 72 22.2 40 4.4 31 31 VRB 6 9 30.14 1021 10 16 0.00 0.00
7:52 pm 19:52 Mostly Sunny 70 21.1 39 3.9 32 32 WSW 6 9 30.13 1020 10 16 0.00 0.00
8:52 pm 20:52 Mostly Clear 67 19.4 38 3.3 35 35 WSW 5 7 30.14 1021 10 16 0.00 0.00
9:52 pm 21:52 Mostly Clear 65 18.3 40 4.4 40 40 SW 7 11 30.14 1021 10 16 0.00 0.00
10:52 pm 22:52 Mostly Clear 62 16.7 40 4.4 44 44 WSW 6 9 30.16 1021 10 16 0.00 0.00
11:52 pm 23:52 Mostly Clear 62 16.7 40 4.4 44 44 WSW 6 9 30.16 1022 10 16 0.00 0.00

Powered by AerisWeather